Location: ?
(35.3436°N, 139.3168°E)
Time: 08:38:24
(UTC+00:00)

X-37B - Pass Details

Date: 14 May 2021
Orbit: 386 x 389 km, 45.0° (Epoch: 10 June)

Event Time Altitude Azimuth Distance (km) Brightness Sun altitude
Rises 11:01:50 0° 303° (WNW) 2,272 6.4 -15.3°
Reaches altitude 10° 11:03:56 10° 307° (NW) 1,415 4.8 -15.7°
Maximum altitude 11:07:05 60° 29° (NNE) 447 0.8 -16.2°
Enters shadow 11:07:58 40° 89° (E) 585 1.1 -16.3°
